Overview Statistics Trail Chart Weather Telemetry Raw packets
 

This is the latest recevied weather packets stored in our database for station/object K6GMW. If no packets are shown the sender has not sent any weather packets the latest 10 day(s).

<< 11 12 13 14 15 16 17 >>
Time Temp. Humidity Pressure Rain* Wind** Luminosity Snow
1788552064 36.67° C 41% 1014.4 hPa 0 mm - 914 W/m² -
1788551762 36.67° C 41% 1014.5 hPa 0 mm - 545 W/m² -
1788551456 36.67° C 40% 1014.6 hPa 0 mm - 915 W/m² -
1788551156 36.11° C 42% 1014.6 hPa 0 mm - 898 W/m² -
1788550851 35.56° C 43% 1014.6 hPa 0 mm - 883 W/m² -
1788550545 36.11° C 42% 1014.8 hPa 0 mm - 173 W/m² -
1788550242 36.11° C 43% 1014.8 hPa 0 mm - 882 W/m² -
1788549941 36.11° C 43% 1014.9 hPa 0 mm - 883 W/m² -
1788549637 35.56° C 43% 1014.8 hPa 0 mm - 948 W/m² -
1788549334 35.56° C 44% 1014.8 hPa 0 mm - 962 W/m² -
1788549030 35.56° C 44% 1015 hPa 0 mm - 148 W/m² -
1788548725 35.56° C 43% 1015.1 hPa 0 mm - 174 W/m² -
1788548422 35.56° C 44% 1015.2 hPa 0 mm - 963 W/m² -
1788548118 35.56° C 45% 1015.1 hPa 0 mm - 1005 W/m² -
1788547813 35.56° C 46% 1015.1 hPa 0 mm - 1006 W/m² -
1788547513 35° C 47% 1015.3 hPa 0 mm - 981 W/m² -
1788547208 35° C 47% 1015.2 hPa 0 mm - 200 W/m² -
1788546903 35° C 46% 1015.4 hPa 0 mm - 1023 W/m² -
1788546598 35° C 46% 1015.4 hPa 0 mm - 1040 W/m² -
1788546294 35° C 47% 1015.5 hPa 0 mm - 1048 W/m² -
1788545993 35.56° C 46% 1015.5 hPa 0 mm - 199 W/m² -
1788545689 34.44° C 48% 1015.8 hPa 0 mm - 1044 W/m² -
1788545384 35° C 48% 1015.8 hPa 0 mm - 155 W/m² -
1788545079 35° C 48% 1016 hPa 0 mm - 1017 W/m² -
1788544778 35° C 49% 1016 hPa 0 mm - 1078 W/m² -

* Rain latest hour (hover to see other rain measurements)
** Current wind speed in m/s (hover to see current wind gust speed)